This is the latest recevied weather packets stored in our database for station/object DM1RG-6. If no packets are shown the sender has not sent any weather packets the latest 1 day(s).
| Time | Temp. | Humidity | Pressure | Rain* | Wind** | Luminosity | Snow |
|---|---|---|---|---|---|---|---|
| 1777987803 | 19.44° C | 75% | 1007.6 hPa | 0 mm | 0.89 m/s, 170° | - | - |
| 1777987443 | 18.89° C | 75% | 1007.4 hPa | 0 mm | 1.34 m/s, 107° | - | - |
| 1777987083 | 18.33° C | 78% | 1007.8 hPa | 0 mm | 1.79 m/s, 77° | - | - |
| 1777986723 | 18.33° C | 78% | 1007.4 hPa | 0 mm | 1.34 m/s, 37° | - | - |
| 1777986364 | 18.33° C | 78% | 1007.6 hPa | 0 mm | 0.89 m/s, 30° | - | - |
| 1777986003 | 19.44° C | 74% | 1007.5 hPa | 0 mm | 0.45 m/s, 143° | - | - |
| 1777985643 | 18.89° C | 77% | 1007.8 hPa | 0 mm | 1.34 m/s, 108° | - | - |
| 1777985283 | 18.33° C | 79% | 1007.9 hPa | 0 mm | 1.79 m/s, 124° | - | - |
| 1777984923 | 18.33° C | 80% | 1008.1 hPa | 0 mm | 1.34 m/s, 133° | - | - |
| 1777984563 | 18.33° C | 80% | 1007.9 hPa | 0 mm | 0.89 m/s, 299° | - | - |
| 1777984203 | 18.33° C | 81% | 1008.1 hPa | 0 mm | 0.89 m/s, 271° | - | - |
| 1777983843 | 17.78° C | 81% | 1008.2 hPa | 0 mm | 0.45 m/s, 354° | - | - |
| 1777983483 | 17.22° C | 83% | 1008.1 hPa | 0 mm | 0.89 m/s, 66° | - | - |
| 1777983123 | 17.22° C | 86% | 1008.2 hPa | 0 mm | 0.45 m/s, 104° | - | - |
| 1777982764 | 17.22° C | 87% | 1008.4 hPa | 0 mm | 0.45 m/s, 47° | - | - |
| 1777982403 | 16.67° C | 88% | 1008.1 hPa | 0 mm | 0.89 m/s, 121° | - | - |
| 1777982044 | 16.67° C | 89% | 1008.3 hPa | 0 mm | 0.89 m/s, 205° | - | - |
| 1777981683 | 16.11° C | 90% | 1008.3 hPa | 0 mm | 0.45 m/s, 204° | - | - |
| 1777981323 | 16.11° C | 91% | 1008.6 hPa | 0 mm | 0.45 m/s, 90° | - | - |
| 1777980963 | 16.11° C | 92% | 1008.5 hPa | 0 mm | 0.45 m/s, 90° | - | - |
| 1777980603 | 16.11° C | 92% | 1008.4 hPa | 0 mm | 0 m/s | - | - |
| 1777980243 | 16.11° C | 92% | 1008.5 hPa | 0 mm | 0 m/s | - | - |
| 1777979884 | 15.56° C | 92% | 1008.7 hPa | 0 mm | 0 m/s | - | - |
| 1777979523 | 15.56° C | 92% | 1008.8 hPa | 0 mm | 0 m/s | - | - |
| 1777979163 | 15.56° C | 92% | 1008.7 hPa | 0 mm | 0 m/s | - | - |
* Rain latest hour (hover to see other rain measurements)
** Current wind speed in m/s (hover to see current wind gust speed)